Tracking 17699 objects as of 31-May-2016
HD Live streaming from Space Station
objects crossing your sky now

CZ-4C DEB

Track CZ-4C DEB now!
10-day predictions


NORAD ID: 38305
Int'l Code: 2010-009J
Perigee: 1,205.7 km
Apogee: 1,334.5 km
Inclination: 63.5 °
Period: 110.8 minutes
Semi major axis: 7641 km
RCS: 0.0013 m2 (small)
Launch date: March 5, 2010
Source: People's Republic of China (PRC)
Launch site: Jiuquan Satellite Launch Center, China (JSC)

Note: This is SATELLITE DEBRIS
Your satellite tracking list
Your tracking list is empty





NASA's NSSDC Master Catalog

Two Line Element Set (TLE):
1 38305U 10009J   16151.67827641 -.00000088  00000-0 -29756-4 0  9995
2 38305  63.4977 202.0325 0084312 108.0180 339.8530 12.99779422295668
Source of the keplerian elements: AFSPC

N2YO: 578